N4TRF-13 Weather Reports


time (UTC)temp
C
wind
direction
speed
KPH
gust
KPH
rain 1hr
cm
rain 24hr
cm
rain mn
cm
humidity
%
barometer
mb
20260510192706 30 124 0.0 4.8 0.00 0.00 0.00 54 1017.0
20260510192206 29 175 0.0 3.2 0.00 0.00 0.00 56 1017.0
20260510191706 28 94 0.0 3.2 0.00 0.00 0.00 58 1017.0
20260510191206 29 147 1.6 4.8 0.00 0.00 0.00 51 1017.0
20260510190706 30 138 0.0 0.0 0.00 0.00 0.00 51 1017.0
20260510190206 30 147 0.0 3.2 0.00 0.00 0.00 50 1017.0
20260510185706 30 134 0.0 4.8 0.00 0.00 0.00 50 1017.0
20260510185207 30 93 0.0 3.2 0.00 0.00 0.00 51 1017.0
20260510184706 31 182 0.0 3.2 0.00 0.00 0.00 49 1017.0
20260510184207 31 136 1.6 8.0 0.00 0.00 0.00 46 1017.0
20260510183706 31 77 3.2 6.4 0.00 0.00 0.00 52 1017.0
20260510183206 31 91 3.2 9.7 0.00 0.00 0.00 50 1017.0
20260510182706 31 324 3.2 9.7 0.00 0.00 0.00 47 1017.0
20260510182206 31 130 0.0 4.8 0.00 0.00 0.00 53 1017.0
20260510181706 30 83 6.4 12.9 0.00 0.00 0.00 51 1017.0
20260510181206 31 110 1.6 6.4 0.00 0.00 0.00 53 1017.0
20260510180707 30 53 3.2 8.0 0.00 0.00 0.00 50 1017.0
20260510180206 30 115 4.8 11.3 0.00 0.00 0.00 48 1018.0
20260510175706 30 137 4.8 9.7 0.00 0.00 0.00 53 1018.0
20260510175206 30 153 3.2 9.7 0.00 0.00 0.00 51 1018.0
20260510174707 30 235 1.6 6.4 0.00 0.00 0.00 54 1018.0
20260510174206 30 206 3.2 8.0 0.00 0.00 0.00 50 1018.0
20260510173707 30 90 1.6 6.4 0.00 0.00 0.00 55 1018.0
20260510173208 29 82 3.2 6.4 0.00 0.00 0.00 56 1018.0
20260510172706 28 280 3.2 9.7 0.00 0.00 0.00 54 1018.0
20260510172206 29 257 3.2 9.7 0.00 0.00 0.00 55 1018.0
20260510171706 29 310 1.6 9.7 0.00 0.00 0.00 54 1018.0
20260510171207 28 250 3.2 11.3 0.00 0.00 0.00 57 1018.0
20260510170706 28 110 1.6 8.0 0.00 0.00 0.00 55 1018.0
20260510170206 28 229 4.8 11.3 0.00 0.00 0.00 56 1018.0
20260510165706 28 204 1.6 9.7 0.00 0.00 0.00 60 1018.0
20260510165206 28 56 1.6 8.0 0.00 0.00 0.00 62 1018.0
20260510164707 28 319 3.2 9.7 0.00 0.00 0.00 62 1018.0
20260510164206 28 192 3.2 6.4 0.00 0.00 0.00 60 1018.0
20260510163706 28 73 4.8 11.3 0.00 0.00 0.00 64 1018.0
20260510163206 27 17 4.8 12.9 0.00 0.00 0.00 66 1018.0
20260510162706 27 314 3.2 9.7 0.00 0.00 0.00 66 1018.0
20260510162206 27 193 3.2 9.7 0.00 0.00 0.00 70 1018.0
20260510161206 27 309 4.8 9.7 0.00 0.00 0.00 73 1018.0
20260510160706 27 188 0.0 3.2 0.00 0.00 0.00 74 1018.0
20260510160206 26 187 1.6 6.4 0.00 0.00 0.00 70 1018.0
20260510155706 26 128 3.2 11.3 0.00 0.00 0.00 74 1018.0
20260510155206 26 174 1.6 9.7 0.00 0.00 0.00 72 1018.0
20260510154706 26 179 0.0 3.2 0.00 0.00 0.00 72 1018.0
20260510154206 26 183 1.6 9.7 0.00 0.00 0.00 74 1018.0
20260510153707 25 142 4.8 11.3 0.00 0.00 0.00 75 1018.0
20260510153206 25 88 4.8 9.7 0.00 0.00 0.00 76 1018.0
20260510152706 25 208 3.2 9.7 0.00 0.00 0.00 76 1018.0
20260510152206 25 271 3.2 8.0 0.00 0.00 0.00 77 1018.0
20260510151710 25 227 1.6 8.0 0.00 0.00 0.00 77 1018.0
20260510151206 25 24 3.2 9.7 0.00 0.00 0.00 77 1018.0
20260510150711 24 105 3.2 6.4 0.00 0.00 0.00 79 1018.0
20260510150206 24 187 1.6 4.8 0.00 0.00 0.00 81 1018.0
20260510145706 24 228 0.0 4.8 0.00 0.00 0.00 83 1018.0
20260510145206 24 206 1.6 6.4 0.00 0.00 0.00 82 1018.0
20260510144706 23 122 1.6 8.0 0.00 0.00 0.00 85 1018.0
20260510144208 23 178 1.6 6.4 0.00 0.00 0.00 85 1018.0
20260510143706 22 117 1.6 6.4 0.00 0.00 0.00 88 1018.0
20260510143206 22 245 6.4 11.3 0.00 0.00 0.00 87 1018.0
20260510142706 22 297 6.4 16.1 0.00 0.00 0.00 89 1018.0
20260510142206 22 50 6.4 11.3 0.00 0.00 0.00 89 1018.0
20260510141706 22 342 4.8 9.7 0.00 0.00 0.00 90 1018.0
20260510141205 21 329 3.2 9.7 0.00 0.00 0.00 90 1018.0
20260510140706 21 316 3.2 6.4 0.00 0.00 0.00 92 1018.0
20260510140206 21 325 1.6 6.4 0.00 0.00 0.00 93 1018.0
20260510135706 21 220 0.0 4.8 0.00 0.00 0.00 94 1018.0
20260510135206 21 163 1.6 6.4 0.00 0.00 0.00 93 1018.0
20260510134706 21 304 0.0 3.2 0.00 0.00 0.00 92 1018.0
20260510134206 21 137 0.0 0.0 0.00 0.00 0.00 93 1018.0
20260510133706 20 85 1.6 6.4 0.00 0.00 0.00 93 1018.0
20260510133206 20 33 0.0 3.2 0.00 0.00 0.00 94 1018.0
20260510132706 20 44 0.0 4.8 0.00 0.00 0.00 94 1018.0
20260510132206 19 26 0.0 4.8 0.00 0.00 0.00 94 1018.0
20260510131706 19 123 0.0 0.0 0.00 0.00 0.00 95 1018.0
20260510131207 18 63 0.0 0.0 0.00 0.00 0.00 97 1018.0
20260510130706 18 28 0.0 0.0 0.00 0.00 0.00 99 1018.0
20260510130206 17 127 0.0 0.0 0.00 0.00 0.00 100 1018.0
20260510125706 17 78 0.0 0.0 0.00 0.00 0.00 100 1018.0
20260510125206 16 111 0.0 0.0 0.00 0.00 0.00 100 1018.0
20260510124706 15 74 0.0 0.0 0.00 0.00 0.00 100 1018.0
20260510124206 15 59 0.0 0.0 0.00 0.00 0.00 100 1018.0
20260510123706 15 38 0.0 0.0 0.00 0.00 0.00 100 1018.0
20260510123206 15 17 0.0 0.0 0.00 0.00 0.00 100 1018.0
20260510122706 15 39 0.0 0.0 0.00 0.00 0.00 100 1017.0
20260510122206 15 138 0.0 0.0 0.00 0.00 0.00 100 1017.0
20260510121707 14 113 0.0 0.0 0.00 0.00 0.00 100 1017.0
20260510121206 13 129 0.0 0.0 0.00 0.00 0.00 100 1017.0
20260510120706 13 116 0.0 0.0 0.00 0.00 0.00 100 1017.0
20260510120206 12 137 0.0 0.0 0.00 0.00 0.00 100 1017.0
20260510115706 12 148 0.0 0.0 0.00 0.00 0.00 100 1017.0
20260510115206 12 155 0.0 0.0 0.00 0.00 0.00 100 1017.0
20260510114709 12 158 0.0 0.0 0.00 0.00 0.00 100 1017.0
20260510114206 11 159 0.0 0.0 0.00 0.00 0.00 100 1017.0
20260510113706 11 147 0.0 0.0 0.00 0.00 0.00 100 1017.0
20260510113206 11 148 0.0 0.0 0.00 0.00 0.00 100 1017.0
20260510112706 11 187 0.0 0.0 0.00 0.00 0.00 100 1017.0
20260510112206 11 110 0.0 0.0 0.00 0.00 0.00 100 1016.0
20260510111706 11 117 0.0 0.0 0.00 0.00 0.00 100 1016.0
20260510111206 11 117 0.0 0.0 0.00 0.00 0.00 100 1016.0
20260510110707 11 110 0.0 0.0 0.00 0.00 0.00 100 1016.0
20260510110206 11 153 0.0 0.0 0.00 0.00 0.00 100 1016.0
20260510105706 11 153 0.0 0.0 0.00 0.00 0.00 100 1016.0
20260510105206 11 159 0.0 0.0 0.00 0.00 0.00 100 1016.0
20260510104706 11 153 0.0 0.0 0.00 0.00 0.00 100 1016.0
20260510104206 11 204 0.0 0.0 0.00 0.00 0.00 100 1016.0
20260510103706 11 153 0.0 0.0 0.00 0.00 0.00 100 1016.0
20260510103206 11 153 0.0 0.0 0.00 0.00 0.00 100 1016.0
20260510102706 11 152 0.0 0.0 0.00 0.00 0.00 100 1016.0
20260510102206 11 148 0.0 0.0 0.00 0.00 0.00 100 1016.0
20260510101706 11 158 0.0 0.0 0.00 0.00 0.00 100 1016.0
20260510101208 11 150 0.0 0.0 0.00 0.00 0.00 100 1016.0
20260510100706 11 155 0.0 0.0 0.00 0.00 0.00 100 1016.0
20260510100207 11 153 0.0 0.0 0.00 0.00 0.00 100 1015.0
20260510095707 11 153 0.0 0.0 0.00 0.00 0.00 100 1015.0
20260510095206 11 131 0.0 0.0 0.00 0.00 0.00 100 1015.0
20260510094705 11 139 0.0 0.0 0.00 0.00 0.00 100 1015.0
20260510094206 11 137 0.0 0.0 0.00 0.00 0.00 100 1015.0
20260510093706 11 157 0.0 0.0 0.00 0.00 0.00 100 1015.0
20260510093206 11 97 0.0 0.0 0.00 0.00 0.00 100 1015.0
20260510092706 11 139 0.0 0.0 0.00 0.00 0.00 100 1015.0
20260510092206 11 155 0.0 0.0 0.00 0.00 0.00 100 1015.0
20260510091706 11 312 0.0 0.0 0.00 0.00 0.00 100 1015.0
20260510091206 11 285 0.0 0.0 0.00 0.00 0.00 100 1015.0
20260510090706 11 152 0.0 0.0 0.00 0.00 0.00 100 1015.0
20260510090206 11 161 0.0 0.0 0.00 0.00 0.00 100 1015.0
20260510085707 11 140 0.0 0.0 0.00 0.00 0.00 100 1015.0
20260510085206 11 122 0.0 0.0 0.00 0.00 0.00 100 1015.0
20260510084706 11 60 0.0 0.0 0.00 0.00 0.00 100 1015.0
20260510084206 11 52 0.0 0.0 0.00 0.00 0.00 100 1015.0
20260510083708 11 60 0.0 0.0 0.00 0.00 0.00 100 1015.0
20260510083206 11 119 0.0 0.0 0.00 0.00 0.00 100 1015.0
20260510082706 11 135 0.0 0.0 0.00 0.00 0.00 100 1015.0
20260510082206 11 148 0.0 0.0 0.00 0.00 0.00 100 1015.0
20260510081706 11 129 0.0 0.0 0.00 0.00 0.00 100 1015.0
20260510081206 11 148 0.0 0.0 0.00 0.00 0.00 100 1015.0
20260510080706 11 168 0.0 0.0 0.00 0.00 0.00 100 1015.0
20260510080206 11 161 0.0 0.0 0.00 0.00 0.00 100 1015.0
20260510075706 11 144 0.0 0.0 0.00 0.00 0.00 100 1015.0
20260510075207 12 128 0.0 0.0 0.00 0.00 0.00 100 1015.0
20260510074706 12 107 0.0 0.0 0.00 0.00 0.00 100 1015.0
20260510074206 12 95 0.0 0.0 0.00 0.00 0.00 100 1015.0
20260510073706 12 93 0.0 0.0 0.00 0.00 0.00 100 1015.0
20260510073207 12 252 0.0 0.0 0.00 0.00 0.00 100 1015.0
20260510072706 12 172 0.0 0.0 0.00 0.00 0.00 100 1015.0
20260510072206 12 155 0.0 0.0 0.00 0.00 0.00 100 1015.0
20260510071706 12 188 0.0 0.0 0.00 0.00 0.00 100 1015.0
20260510071206 12 249 0.0 0.0 0.00 0.00 0.00 100 1015.0
20260510070706 12 184 0.0 0.0 0.00 0.00 0.00 100 1015.0
20260510070206 12 199 0.0 0.0 0.00 0.00 0.00 100 1015.0
20260510065706 12 146 0.0 0.0 0.00 0.00 0.00 99 1015.0
20260510065206 12 165 0.0 0.0 0.00 0.00 0.00 100 1015.0
20260510064706 12 163 0.0 0.0 0.00 0.00 0.00 99 1015.0
20260510064206 12 162 0.0 0.0 0.00 0.00 0.00 99 1015.0
20260510063706 12 166 0.0 0.0 0.00 0.00 0.00 99 1015.0
20260510062719 12 160 0.0 0.0 0.00 0.00 0.00 99 1015.0
20260510062206 12 151 0.0 0.0 0.00 0.00 0.00 99 1015.0
20260510061707 12 225 0.0 0.0 0.00 0.00 0.00 99 1015.0
20260510061206 12 189 0.0 0.0 0.00 0.00 0.00 99 1015.0
20260510060706 12 135 0.0 0.0 0.00 0.00 0.00 99 1015.0
20260510060206 12 137 0.0 0.0 0.00 0.00 0.00 99 1015.0
20260510055706 12 127 0.0 0.0 0.00 0.00 0.00 99 1015.0
20260510055206 12 137 0.0 0.0 0.00 0.00 0.00 99 1015.0
20260510054706 12 147 0.0 0.0 0.00 0.00 0.00 99 1015.0
20260510054206 12 130 0.0 0.0 0.00 0.00 0.00 99 1015.0
20260510053706 12 126 0.0 0.0 0.00 0.00 0.00 99 1015.0
20260510053206 12 151 0.0 0.0 0.00 0.00 0.00 99 1015.0
20260510052706 12 157 0.0 0.0 0.00 0.00 0.00 98 1015.0
20260510052206 12 179 0.0 0.0 0.00 0.00 0.00 98 1015.0
20260510051706 12 159 0.0 0.0 0.00 0.00 0.00 98 1015.0
20260510051206 12 157 0.0 0.0 0.00 0.00 0.00 98 1015.0
20260510050706 12 135 0.0 0.0 0.00 0.00 0.00 98 1014.0
20260510050206 12 147 0.0 0.0 0.00 0.00 0.00 98 1014.0
20260510045706 12 149 0.0 0.0 0.00 0.00 0.00 98 1014.0
20260510045206 12 109 0.0 0.0 0.00 0.00 0.00 98 1014.0
20260510044706 13 149 0.0 0.0 0.00 0.00 0.00 98 1014.0
20260510044206 13 155 0.0 0.0 0.00 0.00 0.00 97 1014.0
20260510043707 13 147 0.0 0.0 0.00 0.00 0.00 97 1014.0
20260510043207 13 147 0.0 0.0 0.00 0.00 0.00 97 1014.0
20260510042706 13 149 0.0 0.0 0.00 0.00 0.00 97 1014.0
20260510042206 13 188 0.0 0.0 0.00 0.00 0.00 97 1014.0
20260510041707 13 120 0.0 0.0 0.00 0.00 0.00 97 1015.0
20260510041207 13 125 0.0 0.0 0.00 0.00 0.00 97 1015.0
20260510040708 13 166 0.0 0.0 0.00 0.00 0.00 97 1015.0
20260510040206 13 108 0.0 0.0 0.00 0.00 0.00 96 1015.0
20260510035710 14 166 0.0 0.0 0.00 0.00 0.00 96 1015.0
20260510035206 14 159 0.0 0.0 0.00 0.00 0.00 96 1015.0
20260510034706 14 164 0.0 0.0 0.00 0.00 0.00 96 1014.0
20260510034208 14 150 0.0 0.0 0.00 0.00 0.00 95 1015.0
20260510033706 14 130 0.0 0.0 0.00 0.00 0.00 95 1014.0
20260510033206 15 125 0.0 0.0 0.00 0.00 0.00 95 1014.0
20260510032706 15 147 0.0 0.0 0.00 0.00 0.00 95 1014.0
20260510032206 15 154 0.0 0.0 0.00 0.00 0.00 95 1014.0
20260510031706 15 201 0.0 0.0 0.00 0.00 0.00 94 1014.0
20260510031206 15 171 0.0 0.0 0.00 0.00 0.00 94 1014.0
20260510030706 15 157 0.0 0.0 0.00 0.00 0.00 94 1014.0
20260510030206 15 157 0.0 0.0 0.00 0.00 0.00 94 1014.0
20260510025706 15 157 0.0 0.0 0.00 0.00 0.00 93 1014.0
20260510025206 15 158 0.0 0.0 0.00 0.00 0.00 93 1014.0
20260510024706 16 158 0.0 0.0 0.00 0.00 0.00 92 1014.0
20260510024206 16 156 0.0 0.0 0.00 0.00 0.00 92 1014.0
20260510023706 16 150 0.0 0.0 0.00 0.00 0.00 92 1014.0
20260510023206 16 143 0.0 0.0 0.00 0.00 0.00 91 1014.0
20260510022708 16 170 0.0 0.0 0.00 0.00 0.00 91 1014.0
20260510022206 16 158 0.0 0.0 0.00 0.00 0.00 90 1014.0
20260510021706 17 157 0.0 0.0 0.00 0.00 0.00 90 1014.0
20260510021206 17 158 0.0 0.0 0.00 0.00 0.00 89 1014.0
20260510020706 17 153 0.0 0.0 0.00 0.00 0.00 88 1013.0
20260510020206 17 141 0.0 0.0 0.00 0.00 0.00 87 1013.0
20260510015706 17 174 0.0 0.0 0.00 0.00 0.00 86 1013.0
20260510015206 17 158 0.0 0.0 0.00 0.00 0.00 85 1013.0
20260510014706 18 157 0.0 0.0 0.00 0.00 0.00 84 1013.0
20260510014206 18 135 0.0 0.0 0.00 0.00 0.00 83 1013.0
20260510013707 18 139 0.0 0.0 0.00 0.00 0.00 80 1013.0
20260510013207 18 138 0.0 0.0 0.00 0.00 0.00 79 1013.0
20260510012706 19 234 0.0 0.0 0.00 0.00 0.00 79 1013.0
20260510012206 19 164 0.0 0.0 0.00 0.00 0.00 77 1013.0
20260510011706 20 158 0.0 0.0 0.00 0.00 0.00 75 1013.0
20260510011208 20 158 0.0 0.0 0.00 0.00 0.00 73 1013.0
20260510010706 20 158 0.0 0.0 0.00 0.00 0.00 72 1013.0
20260510010206 21 150 0.0 0.0 0.00 0.00 0.00 71 1013.0
20260510005706 21 157 0.0 0.0 0.00 0.00 0.00 71 1013.0
20260510005206 21 158 0.0 0.0 0.00 0.00 0.00 70 1013.0
20260510004707 22 143 0.0 0.0 0.00 0.00 0.00 69 1013.0
20260510004206 22 155 0.0 0.0 0.00 0.00 0.00 69 1012.0
20260510003706 22 156 0.0 0.0 0.00 0.00 0.00 66 1012.0
20260510003206 23 156 0.0 0.0 0.00 0.00 0.00 63 1012.0
20260510002706 23 155 0.0 0.0 0.00 0.00 0.00 59 1012.0
20260510002207 24 157 0.0 0.0 0.00 0.00 0.00 60 1012.0
20260510001706 25 143 0.0 0.0 0.00 0.00 0.00 60 1012.0
20260510001206 25 143 0.0 0.0 0.00 0.00 0.00 57 1012.0
20260510000706 25 142 0.0 0.0 0.00 0.00 0.00 52 1012.0
20260510000206 26 163 0.0 0.0 0.00 0.00 0.00 50 1012.0
20260509235706 26 150 0.0 0.0 0.00 0.00 0.00 50 1012.0
20260509235206 27 128 0.0 0.0 0.00 0.00 0.00 48 1012.0
20260509234706 27 124 0.0 0.0 0.00 0.00 0.00 49 1012.0
20260509234206 27 82 0.0 0.0 0.00 0.00 0.00 47 1012.0
20260509233707 27 45 0.0 0.0 0.00 0.00 0.00 44 1012.0
20260509233206 27 0 0.0 3.2 0.00 0.00 0.00 45 1012.0
20260509232707 28 305 1.6 6.4 0.00 0.00 0.00 46 1012.0
20260509232206 28 353 1.6 9.7 0.00 0.00 0.00 44 1012.0
20260509231706 29 351 1.6 6.4 0.00 0.00 0.00 41 1012.0
20260509231206 29 21 1.6 4.8 0.00 0.00 0.00 42 1012.0
20260509230707 30 201 0.0 4.8 0.00 0.00 0.00 40 1012.0
20260509230206 30 91 0.0 3.2 0.00 0.00 0.00 43 1012.0
20260509225706 29 282 0.0 3.2 0.00 0.00 0.00 43 1012.0
20260509225206 31 158 0.0 1.6 0.00 0.00 0.00 40 1012.0
20260509224706 30 8 1.6 6.4 0.00 0.00 0.00 41 1012.0
20260509224206 31 357 0.0 3.2 0.00 0.00 0.00 39 1012.0
20260509223706 30 150 1.6 6.4 0.00 0.00 0.00 41 1012.0
20260509223206 30 10 4.8 8.0 0.00 0.00 0.00 40 1012.0
20260509222706 31 338 3.2 9.7 0.00 0.00 0.00 38 1012.0
20260509222206 31 197 0.0 3.2 0.00 0.00 0.00 41 1012.0
20260509221706 31 154 0.0 4.8 0.00 0.00 0.00 41 1012.0
20260509221207 31 201 0.0 3.2 0.00 0.00 0.00 41 1012.0
20260509220707 30 159 0.0 3.2 0.00 0.00 0.00 41 1012.0
20260509220206 30 199 0.0 4.8 0.00 0.00 0.00 45 1012.0
20260509215706 28 341 4.8 9.7 0.00 0.00 0.00 45 1012.0
20260509215206 29 266 1.6 6.4 0.00 0.00 0.00 42 1012.0
20260509214706 30 230 1.6 6.4 0.00 0.00 0.00 44 1012.0
20260509214206 30 94 1.6 4.8 0.00 0.00 0.00 44 1012.0
20260509213706 30 161 3.2 9.7 0.00 0.00 0.00 43 1012.0
20260509213206 31 242 0.0 4.8 0.00 0.00 0.00 43 1012.0
20260509212706 31 259 1.6 6.4 0.00 0.00 0.00 45 1012.0
20260509212206 30 117 3.2 8.0 0.00 0.00 0.00 45 1012.0
20260509211708 30 37 1.6 8.0 0.00 0.00 0.00 45 1012.0
20260509211209 30 206 1.6 4.8 0.00 0.00 0.00 46 1012.0
20260509210706 30 32 6.4 9.7 0.00 0.00 0.00 43 1012.0
20260509210211 31 32 6.4 9.7 0.00 0.00 0.00 42 1012.0
20260509205706 31 23 4.8 11.3 0.00 0.00 0.00 41 1012.0
20260509205206 31 153 1.6 9.7 0.00 0.00 0.00 42 1012.0
20260509204706 31 12 6.4 11.3 0.00 0.00 0.00 45 1012.0
20260509204206 31 207 1.6 9.7 0.00 0.00 0.00 42 1012.0
20260509203706 30 154 1.6 6.4 0.00 0.00 0.00 45 1012.0
20260509203206 28 54 1.6 4.8 0.00 0.00 0.00 48 1012.0
20260509202706 28 241 3.2 6.4 0.00 0.00 0.00 47 1012.0
20260509202206 29 213 1.6 11.3 0.00 0.00 0.00 50 1012.0
20260509201706 29 238 1.6 6.4 0.00 0.00 0.00 48 1012.0
20260509201207 29 212 3.2 6.4 0.00 0.00 0.00 48 1012.0
20260509200706 29 331 3.2 8.0 0.00 0.00 0.00 45 1012.0
20260509200206 28 20 4.8 11.3 0.00 0.00 0.00 43 1012.0
20260509195706 27 185 4.8 11.3 0.00 0.00 0.00 47 1012.0
20260509195210 28 241 3.2 9.7 0.00 0.00 0.00 45 1012.0
20260509194706 28 249 3.2 9.7 0.00 0.00 0.00 45 1012.0
20260509194206 29 151 1.6 6.4 0.00 0.00 0.00 47 1012.0
20260509193707 29 82 4.8 11.3 0.00 0.00 0.00 52 1012.0
20260509193206 28 34 8.0 17.7 0.00 0.00 0.00 50 1012.0